Regional Weather Roundup
Issued by NWS Bismarck, ND

Home | Current Version | Previous Version | Text Only | Print | Product List | Glossary On
Versions: 1 2 3 4 5 6 7 8 9 10 11 12 13 14 15 16 17 18 19 20 21 22 23 24 25 26 27 28 29 30 31 32 33 34 35 36 37 38 39 40 41 42 43 44 45 46 47 48 49 50
000
ASUS43 KBIS 301420
RWRBIS

NWR BROADCAST TEXT
NATIONAL WEATHER SERVICE BISMARCK ND
900 AM CDT SAT AUG 30 2014

NOTE: "FAIR" INDICATES FEW OR NO CLOUDS BELOW 12,000 FEET WITH NO
SIGNIFICANT WEATHER AND/OR OBSTRUCTIONS TO VISIBILITY.


CITY           SKY/WX    TMP DP  RH WIND       PRES   REMARKS
WILLISTON      SUNNY     60  53  77 SE9       29.85F
MINOT          SUNNY     54  50  86 E6        29.93S
MINOT AFB      SUNNY     54  54  99 S8        29.93S
BISMARCK       FOG       49  49 100 CALM      29.97S VSB 1/4
DICKINSON      MOSUNNY   55  53  93 S17       29.89F
GARRISON         N/A     58  55  90 S9        29.93F
HETTINGER ARPT CLOUDY    55  53  93 SE12      29.93F
JAMESTOWN      SUNNY     55  51  86 N3        29.96S
BEACH            N/A     55  55 100 SE21G30   29.85F
CARRINGTON     FAIR      54  54 100 MISG      29.97F
CROSBY         FAIR      59  55  88 S13G22    29.85F
HARVEY         FOG       50  50 100 CALM      29.96F VSB 3/4
HAZEN          FAIR      50  50 100 CALM      29.95S
LINTON         CLOUDY    54  54 100 E5        29.96F
MANDAN         FOG       50  50 100 S5        29.97S VSB<1/4
OAKES            N/A     57  55  94 N8        29.95S
RUGBY          FAIR      55  50  82 S5        29.95F
STANLEY        FAIR      55  55 100 S15       29.91F
TIOGA          FAIR      57  57 100 SE17      29.90F
WATFORD CITY   FAIR      59  54  82 SE10      29.85F
$$

CITY           SKY/WX    TMP DP  RH WIND       PRES   REMARKS
GRAND FORKS    SUNNY     54  51  90 N6        29.94F
GRAND FORKS AF SUNNY     54  54  99 NE7       29.95F
DEVILS LAKE    SUNNY     55  46  71 E7        29.94F
FARGO          CLOUDY    56  52  86 N12       29.92S
CANDO          FAIR      50  50 100 SE5       29.97F
CAVALIER       FAIR      54  48  82 CALM      29.96F
GRAFTON        FAIR      54  50  87 NE5       29.95F
GWINNER        MOSUNNY   61  55  82 N8        29.95S
LANGDON        FAIR      54  50  87 CALM      29.97S
ROLLA          FAIR      50  50 100 SE6       29.98S
WALHALLA       FAIR      54  52  94 CALM      29.97S
$$

CITY           SKY/WX    TMP DP  RH WIND       PRES   REMARKS
ABERDEEN       CLOUDY    57  55  93 N8        29.95S
MOBRIDGE       SUNNY     56  55  97 SE6       29.94F
BUFFALO          N/A     58  55  90 SE15      29.84F
RAPID CITY     SUNNY     57  56  96 SE10      29.92F
GLASGOW        PTSUNNY   58  55  90 E16G29    29.70F
SIDNEY         SUNNY     61  55  82 S9        29.83F
WOLF POINT     PTSUNNY   61  53  75 E9        29.80S
GLENDIVE       SUNNY     61  55  82 E3        29.81F
MILES CITY     SUNNY     63  53  70 MISG      29.75F
BAKER          SUNNY     58  53  84 SE21G30   29.86F
$$

CITY           SKY/WX    TMP DP  RH WIND       PRES   REMARKS
BILLINGS       LGT RAIN  60  53  77 NW8       29.81R
GREAT FALLS    CLOUDY    62  43  49 SW12      29.82R
REGINA         MOSUNNY   57  52  82 SE18G26   29.75
ESTEVAN        MOSUNNY   57  54  88 S9        29.87F
$$




USA.gov is the U.S. government's official web portal to all federal, state and local government web resources and services.